OPS 4682 DEB, 38363

Orbit data source: Space-Track

OPS 4682 DEB, 38363 is space debris in LEO originally from a launch on Sat, 03 Apr 1965 UTC launched from the Air Force Western Test Range (AFWTR). Debris objects in space refer to the collection of defunct objects orbiting the Earth. Examples of debris include non-operational satellites, rocket bodies, and fragments generated from explosions, collisions, or faulty payload assembly.

Loading next visibility...
Identifier
38363, 1965-027BQ
Orbit
LEO
Country
Flag of USUS
Related business
Manufacturer
Unknown
Mission
Spacecraft
Bus & Motor
Unknown
Mass
Unknown
Launch date (UTC)
1965-04-03 (61 years ago)
Launch vehicle
Unknown
Launch site
Air Force Western Test Range (AFWTR)
Object type
Payload
Rocket body
Debris
Shape & HBR
Unknown shape, 0.1 m
Radar Cross Section
Small (<0.1 m²)

Expand to show TLE details & history
Last TLE update: 9 hours ago

TLE from 9 hours ago
0 OPS 4682 DEB
1 38363U 65027BQ  25293.17021264  .00000277  00000-0  87724-3 0  9994
2 38363  90.2422   4.2608 0032473 122.7703 237.6556 13.01124001520942
Epoch: 2025-10-20T04:05Z
TLE epoch observation values (Epoch: 2025-10-20T04:05:06.372Z)
Latitude
0.00002°
Longitude
-85.89212°
Altitude
1,273.897 km
Speed
7.212 km/s
True Right ascension
00h 17m 02s
True Declination
0° 00' 00"
Sunlit
Object was in full shadow at epoch
Visualization orbit readout
Latitude
Unknown
Longitude
Unknown
Altitude
Unknown
Speed
Unknown
Apparent Right ascension
Unknown
Apparent Declination
Unknown
Sunlit
N/A
Visualization observer readout
Local Sidereal Time
08:31:23
Azimuth
Unknown
Elevation
Unknown
Doppler factor
Unknown
Orbital elements
Apogee altitude
1,279.598 km
Perigee altitude
1,230.025 km
Semi-major axis
7,632.948 km
Eccentricity
0.00325
Inclination
90.2422°
RAAN
4.2608°
Arg. of periapsis
122.7703°
True anomaly
237.3419°
Mean anomaly
237.6556°
Eccentric anomaly
237.49868°
Mean motion
3.25465 °/min
Orbital period
110.61 mins
BSTAR
0.00087724
Loading maneuver chart data...
Computing Atmospheric mass density...
Loading historical data...
Loading historical data...
Loading historical data...
Loading historical data...
Loading historical data...
Loading historical data...
Loading historical data...

Documentation

Showing up to 5 results
|